| time (UTC) | temp F | wind direction | speed knots | gust knots | rain 1hr in | rain 24hr in | rain mn in | humidity % | barometer mb |
| 20260507111205 | 55 | 56 | 1.7 | 7.0 | 0.00 | 0.82 | 0.00 | 71 | 1012.0 |
| 20260507110703 | 56 | 16 | 2.6 | 7.8 | 0.00 | 0.82 | 0.00 | 71 | 1012.0 |
| 20260507110205 | 56 | 243 | 2.6 | 10.4 | 0.00 | 0.82 | 0.00 | 70 | 1011.9 |
| 20260507105704 | 56 | 293 | 2.6 | 10.4 | 0.00 | 0.82 | 0.00 | 71 | 1011.9 |
| 20260507105203 | 55 | 58 | 3.5 | 11.3 | 0.00 | 0.82 | 0.00 | 74 | 1011.9 |
| 20260507104704 | 55 | 339 | 3.5 | 11.3 | 0.00 | 0.82 | 0.00 | 72 | 1011.9 |
| 20260507103705 | 55 | 294 | 3.5 | 10.4 | 0.00 | 0.82 | 0.00 | 72 | 1011.9 |
| 20260507102703 | 56 | 308 | 2.6 | 13.0 | 0.00 | 0.82 | 0.00 | 71 | 1012.0 |
| 20260507102205 | 55 | 353 | 2.6 | 8.7 | 0.00 | 0.82 | 0.00 | 73 | 1011.9 |
| 20260507101705 | 55 | 332 | 2.6 | 8.7 | 0.00 | 0.82 | 0.00 | 73 | 1011.9 |
| 20260507101204 | 55 | 314 | 1.7 | 7.8 | 0.00 | 0.82 | 0.00 | 72 | 1011.9 |
| 20260507100705 | 55 | 265 | 2.6 | 10.4 | 0.00 | 0.82 | 0.00 | 74 | 1011.9 |
| 20260507100205 | 55 | 358 | 2.6 | 10.4 | 0.00 | 0.82 | 0.00 | 73 | 1012.0 |
| 20260507095209 | 54 | 353 | 1.7 | 8.7 | 0.00 | 0.82 | 0.00 | 77 | 1011.9 |
| 20260507094704 | 53 | 353 | 1.7 | 8.7 | 0.00 | 0.82 | 0.00 | 74 | 1011.9 |
| 20260507094203 | 54 | 353 | 1.7 | 8.7 | 0.00 | 0.82 | 0.00 | 76 | 1011.8 |
| 20260507093712 | 54 | 264 | 2.6 | 8.7 | 0.00 | 0.82 | 0.00 | 74 | 1011.7 |
| 20260507093203 | 54 | 29 | 2.6 | 7.0 | 0.00 | 0.82 | 0.00 | 74 | 1011.7 |
| 20260507092706 | 54 | 310 | 2.6 | 7.0 | 0.00 | 0.82 | 0.00 | 75 | 1011.7 |
| 20260507092203 | 54 | 341 | 2.6 | 7.8 | 0.00 | 0.82 | 0.00 | 74 | 1011.7 |
| 20260507091203 | 54 | 5 | 2.6 | 10.4 | 0.00 | 0.82 | 0.00 | 75 | 1011.6 |
| 20260507090704 | 54 | 333 | 3.5 | 12.2 | 0.00 | 0.82 | 0.00 | 73 | 1011.5 |
| 20260507085706 | 53 | 333 | 2.6 | 8.7 | 0.00 | 0.82 | 0.00 | 77 | 1011.5 |
| 20260507085205 | 52 | 44 | 2.6 | 7.8 | 0.00 | 0.82 | 0.00 | 79 | 1011.6 |
| 20260507084704 | 52 | 348 | 1.7 | 7.8 | 0.00 | 0.82 | 0.00 | 77 | 1011.7 |
| 20260507084203 | 52 | 311 | 1.7 | 5.2 | 0.00 | 0.82 | 0.00 | 77 | 1011.6 |
| 20260507082703 | 52 | 259 | 2.6 | 13.9 | 0.00 | 0.82 | 0.00 | 76 | 1011.4 |
| 20260507082204 | 51 | 353 | 2.6 | 9.6 | 0.00 | 0.82 | 0.00 | 79 | 1011.5 |
| 20260507081703 | 51 | 340 | 3.5 | 8.7 | 0.00 | 0.82 | 0.00 | 79 | 1011.4 |
| 20260507081204 | 51 | 251 | 2.6 | 8.7 | 0.00 | 0.82 | 0.00 | 81 | 1011.4 |
| 20260507080206 | 50 | 310 | 1.7 | 7.8 | 0.00 | 0.82 | 0.00 | 80 | 1011.5 |
| 20260507075706 | 50 | 316 | 2.6 | 10.4 | 0.00 | 0.82 | 0.00 | 82 | 1011.4 |
| 20260507075203 | 50 | 314 | 3.5 | 10.4 | 0.00 | 0.82 | 0.00 | 81 | 1011.4 |
| 20260507074203 | 49 | 295 | 2.6 | 9.6 | 0.00 | 0.82 | 0.00 | 81 | 1011.4 |
| 20260507073702 | 50 | 4 | 2.6 | 8.7 | 0.00 | 0.82 | 0.00 | 81 | 1011.4 |
| 20260507073204 | 50 | 83 | 2.6 | 7.8 | 0.00 | 0.82 | 0.00 | 81 | 1011.2 |
| 20260507072703 | 50 | 322 | 2.6 | 7.8 | 0.00 | 0.82 | 0.00 | 81 | 1011.2 |
| 20260507072204 | 49 | 358 | 3.5 | 9.6 | 0.00 | 0.82 | 0.00 | 81 | 1011.2 |
| 20260507071703 | 50 | 344 | 3.5 | 9.6 | 0.00 | 0.82 | 0.00 | 80 | 1011.2 |
| 20260507070703 | 51 | 353 | 3.5 | 12.2 | 0.00 | 0.82 | 0.00 | 79 | 1010.9 |
| 20260507070213 | 51 | 130 | 2.6 | 9.6 | 0.00 | 0.82 | 0.00 | 79 | 1010.8 |
| 20260507065704 | 52 | 48 | 1.7 | 8.7 | 0.00 | 0.82 | 0.00 | 78 | 1010.9 |
| 20260507064706 | 50 | 148 | 2.6 | 11.3 | 0.00 | 0.82 | 0.00 | 82 | 1010.7 |
| 20260507063708 | 51 | 83 | 1.7 | 9.6 | 0.00 | 0.82 | 0.00 | 80 | 1010.6 |
| 20260507063206 | 51 | 353 | 1.7 | 5.2 | 0.00 | 0.82 | 0.00 | 82 | 1010.6 |
| 20260507062706 | 51 | 348 | 1.7 | 6.1 | 0.00 | 0.82 | 0.00 | 83 | 1010.5 |
| 20260507062207 | 50 | 106 | 2.6 | 10.4 | 0.00 | 0.82 | 0.00 | 82 | 1010.5 |
| 20260507061704 | 50 | 137 | 2.6 | 10.4 | 0.00 | 0.82 | 0.00 | 82 | 1010.4 |
| 20260507061205 | 50 | 37 | 1.7 | 7.8 | 0.00 | 0.82 | 0.00 | 81 | 1010.3 |
| 20260507060708 | 51 | 87 | 1.7 | 7.0 | 0.00 | 0.82 | 0.00 | 81 | 1010.3 |
| 20260507060205 | 51 | 353 | 2.6 | 7.8 | 0.00 | 0.82 | 0.00 | 82 | 1010.2 |
| 20260507055704 | 51 | 91 | 2.6 | 7.8 | 0.00 | 0.82 | 0.00 | 82 | 1010.2 |
| 20260507055205 | 50 | 185 | 1.7 | 9.6 | 0.00 | 0.82 | 0.00 | 82 | 1010.1 |
| 20260507054704 | 50 | 333 | 2.6 | 9.6 | 0.00 | 0.82 | 0.00 | 82 | 1010.0 |
| 20260507054204 | 50 | 18 | 3.5 | 9.6 | 0.00 | 0.82 | 0.00 | 81 | 1009.9 |
| 20260507053706 | 51 | 358 | 2.6 | 9.6 | 0.00 | 0.82 | 0.00 | 81 | 1009.8 |
| 20260507053209 | 50 | 44 | 1.7 | 7.0 | 0.00 | 0.82 | 0.00 | 83 | 1009.8 |
| 20260507052705 | 49 | 95 | 1.7 | 6.1 | 0.00 | 0.82 | 0.00 | 85 | 1009.7 |
| 20260507051206 | 49 | 83 | 0.9 | 6.1 | 0.00 | 0.82 | 0.00 | 84 | 1009.6 |
| 20260507050705 | 49 | 91 | 0.9 | 6.1 | 0.00 | 0.82 | 0.00 | 84 | 1009.6 |
| 20260507044706 | 48 | 358 | 2.6 | 8.7 | 0.00 | 0.82 | 0.00 | 84 | 1009.4 |
| 20260507044205 | 48 | 104 | 2.6 | 8.7 | 0.00 | 0.82 | 0.00 | 85 | 1009.4 |
| 20260507043205 | 48 | 348 | 3.5 | 11.3 | 0.00 | 0.82 | 0.00 | 85 | 1009.1 |
| 20260507042706 | 48 | 98 | 3.5 | 12.2 | 0.00 | 0.82 | 0.00 | 85 | 1009.1 |
| 20260507042206 | 48 | 327 | 3.5 | 12.2 | 0.00 | 0.82 | 0.00 | 85 | 1009.1 |
| 20260507041708 | 48 | 80 | 3.5 | 9.6 | 0.00 | 0.82 | 0.00 | 86 | 1009.1 |
| 20260507041204 | 48 | 302 | 3.5 | 9.6 | 0.00 | 0.82 | 0.00 | 85 | 1009.0 |
| 20260507040706 | 48 | 353 | 2.6 | 7.8 | 0.00 | 0.82 | 0.00 | 85 | 1008.9 |
| 20260507040205 | 48 | 54 | 2.6 | 7.0 | 0.00 | 0.82 | 0.00 | 85 | 1008.9 |
| 20260507035204 | 49 | 204 | 2.6 | 10.4 | 0.00 | 0.82 | 0.00 | 85 | 1008.8 |
| 20260507034705 | 49 | 81 | 2.6 | 9.6 | 0.00 | 0.82 | 0.00 | 86 | 1008.8 |
| 20260507034205 | 49 | 37 | 2.6 | 9.6 | 0.00 | 0.82 | 0.00 | 86 | 1008.8 |
| 20260507033706 | 49 | 252 | 1.7 | 8.7 | 0.00 | 0.82 | 0.00 | 86 | 1008.9 |
| 20260507033206 | 49 | 31 | 1.7 | 7.8 | 0.00 | 0.82 | 0.00 | 86 | 1009.0 |
| 20260507032704 | 49 | 177 | 1.7 | 7.8 | 0.00 | 0.82 | 0.00 | 86 | 1008.9 |
| 20260507032207 | 49 | 319 | 2.6 | 9.6 | 0.00 | 0.82 | 0.00 | 86 | 1008.8 |
| 20260507031705 | 49 | 55 | 2.6 | 10.4 | 0.00 | 0.82 | 0.00 | 86 | 1008.8 |
| 20260507031205 | 49 | 348 | 2.6 | 10.4 | 0.00 | 0.82 | 0.00 | 86 | 1008.7 |
| 20260507030704 | 49 | 331 | 1.7 | 7.8 | 0.00 | 0.82 | 0.00 | 86 | 1008.7 |
| 20260507030204 | 49 | 8 | 2.6 | 10.4 | 0.00 | 0.82 | 0.00 | 86 | 1008.6 |
| 20260507025204 | 50 | 318 | 1.7 | 8.7 | 0.00 | 0.82 | 0.00 | 85 | 1008.6 |
| 20260507024205 | 50 | 348 | 1.7 | 7.8 | 0.00 | 0.82 | 0.00 | 85 | 1008.6 |
| 20260507023204 | 50 | 335 | 1.7 | 8.7 | 0.00 | 0.82 | 0.00 | 84 | 1008.5 |
| 20260507022204 | 50 | 64 | 0.9 | 7.0 | 0.00 | 0.82 | 0.00 | 84 | 1008.5 |
| 20260507021704 | 50 | 353 | 0.9 | 5.2 | 0.00 | 0.82 | 0.00 | 83 | 1008.4 |
| 20260507021205 | 50 | 358 | 0.9 | 7.0 | 0.00 | 0.82 | 0.00 | 83 | 1008.4 |
| 20260507020705 | 50 | 324 | 0.0 | 7.0 | 0.00 | 0.82 | 0.00 | 82 | 1008.4 |
| 20260507020207 | 50 | 52 | 0.0 | 2.6 | 0.00 | 0.82 | 0.00 | 83 | 1008.3 |
| 20260507015707 | 50 | 61 | 0.0 | 2.6 | 0.00 | 0.82 | 0.00 | 82 | 1008.3 |
| 20260507014706 | 50 | 163 | 0.0 | 2.6 | 0.00 | 0.82 | 0.00 | 82 | 1008.3 |
| 20260507014206 | 50 | 358 | 0.0 | 2.6 | 0.00 | 0.82 | 0.00 | 82 | 1008.3 |
| 20260507013205 | 50 | 48 | 0.0 | 2.6 | 0.00 | 0.82 | 0.00 | 82 | 1008.3 |
| 20260507012732 | 50 | 38 | 0.9 | 3.5 | 0.00 | 0.82 | 0.00 | 82 | 1008.2 |
| 20260507012207 | 50 | 69 | 1.7 | 6.1 | 0.00 | 0.82 | 0.00 | 82 | 1008.1 |
| 20260507010708 | 50 | 71 | 1.7 | 7.0 | 0.00 | 0.82 | 0.00 | 83 | 1008.1 |
| 20260507010207 | 50 | 281 | 1.7 | 7.0 | 0.00 | 0.82 | 0.00 | 83 | 1008.0 |
| 20260507005728 | 50 | 335 | 1.7 | 7.0 | 0.00 | 0.82 | 0.00 | 83 | 1008.1 |
| 20260507005206 | 50 | 337 | 0.9 | 7.0 | 0.00 | 0.82 | 0.00 | 83 | 1008.0 |
| 20260507004206 | 50 | 353 | 1.7 | 8.7 | 0.00 | 0.82 | 0.00 | 83 | 1007.9 |
| 20260507003706 | 50 | 358 | 1.7 | 7.0 | 0.00 | 0.82 | 0.00 | 83 | 1007.8 |
| 20260507003207 | 50 | 279 | 1.7 | 5.2 | 0.00 | 0.82 | 0.00 | 83 | 1007.8 |
| 20260507002206 | 51 | 320 | 0.9 | 5.2 | 0.00 | 0.82 | 0.00 | 82 | 1007.8 |
| 20260507001705 | 51 | 334 | 1.7 | 7.8 | 0.00 | 0.82 | 0.00 | 82 | 1007.8 |
| 20260507001206 | 51 | 30 | 0.9 | 7.8 | 0.00 | 0.82 | 0.00 | 82 | 1007.8 |
| 20260507000706 | 51 | 37 | 0.9 | 6.1 | 0.00 | 0.82 | 0.00 | 82 | 1007.9 |
| 20260507000205 | 51 | 348 | 0.9 | 6.1 | 0.00 | 0.82 | 0.00 | 82 | 1007.8 |
| 20260506235717 | 50 | 344 | 0.0 | 3.5 | 0.00 | 0.82 | 0.00 | 82 | 1007.8 |
| 20260506235206 | 51 | 91 | 0.0 | 2.6 | 0.00 | 0.82 | 0.00 | 83 | 1007.7 |
| 20260506234705 | 51 | 68 | 0.0 | 2.6 | 0.00 | 0.82 | 0.00 | 83 | 1007.6 |
| 20260506234206 | 51 | 322 | 0.9 | 3.5 | 0.00 | 0.82 | 0.00 | 83 | 1007.7 |
| 20260506233205 | 51 | 341 | 1.7 | 8.7 | 0.00 | 0.82 | 0.00 | 83 | 1007.6 |
| 20260506232712 | 51 | 73 | 1.7 | 8.7 | 0.00 | 0.82 | 0.00 | 83 | 1007.7 |
| 20260506232207 | 51 | 287 | 1.7 | 7.8 | 0.00 | 0.82 | 0.00 | 83 | 1007.8 |
| 20260506231706 | 51 | 324 | 0.9 | 4.3 | 0.00 | 0.82 | 0.00 | 83 | 1007.8 |
| 20260506230207 | 51 | 12 | 1.7 | 10.4 | 0.00 | 0.82 | 0.00 | 82 | 1007.7 |
| 20260506225717 | 51 | 343 | 0.9 | 10.4 | 0.00 | 0.82 | 0.00 | 82 | 1007.7 |
| 20260506225205 | 51 | 46 | 0.9 | 8.7 | 0.00 | 0.82 | 0.00 | 82 | 1007.4 |
| 20260506224705 | 51 | 331 | 0.9 | 4.3 | 0.00 | 0.82 | 0.00 | 82 | 1007.4 |
| 20260506224205 | 51 | 44 | 0.9 | 4.3 | 0.00 | 0.82 | 0.00 | 82 | 1007.6 |
| 20260506223705 | 52 | 50 | 0.0 | 2.6 | 0.00 | 0.82 | 0.00 | 82 | 1007.6 |
| 20260506223207 | 52 | 344 | 0.0 | 2.6 | 0.00 | 0.82 | 0.00 | 82 | 1007.4 |
| 20260506222705 | 52 | 358 | 0.9 | 4.3 | 0.00 | 0.82 | 0.00 | 82 | 1007.3 |
| 20260506222207 | 52 | 353 | 0.9 | 7.0 | 0.00 | 0.82 | 0.00 | 82 | 1007.3 |
| 20260506221709 | 52 | 8 | 0.9 | 7.0 | 0.00 | 0.82 | 0.00 | 82 | 1007.1 |
| 20260506221205 | 52 | 284 | 0.9 | 3.5 | 0.00 | 0.82 | 0.00 | 82 | 1007.1 |
| 20260506220706 | 52 | 318 | 0.9 | 7.0 | 0.00 | 0.82 | 0.00 | 82 | 1007.0 |
| 20260506220208 | 52 | 71 | 0.9 | 7.0 | 0.00 | 0.82 | 0.00 | 82 | 1007.0 |
| 20260506215707 | 52 | 313 | 1.7 | 9.6 | 0.00 | 0.82 | 0.82 | 82 | 1007.0 |
| 20260506215206 | 52 | 348 | 0.9 | 9.6 | 0.00 | 0.82 | 0.82 | 82 | 1007.0 |
| 20260506214707 | 52 | 56 | 0.9 | 4.3 | 0.00 | 0.82 | 0.82 | 81 | 1007.0 |
| 20260506214206 | 52 | 270 | 0.9 | 4.3 | 0.00 | 0.82 | 0.82 | 81 | 1007.0 |
| 20260506212704 | 51 | 88 | 0.9 | 7.8 | 0.00 | 0.82 | 0.82 | 81 | 1006.8 |
| 20260506212203 | 51 | 245 | 0.9 | 7.8 | 0.00 | 0.82 | 0.82 | 80 | 1006.8 |
| 20260506211703 | 51 | 35 | 0.9 | 6.1 | 0.00 | 0.82 | 0.82 | 79 | 1006.7 |
| 20260506210705 | 51 | 63 | 0.9 | 5.2 | 0.00 | 0.82 | 0.82 | 77 | 1006.7 |
| 20260506210203 | 51 | 67 | 0.0 | 1.7 | 0.00 | 0.82 | 0.82 | 76 | 1006.6 |
| 20260506205704 | 51 | 99 | 0.0 | 1.7 | 0.00 | 0.82 | 0.82 | 76 | 1006.5 |
| 20260506205204 | 51 | 44 | 0.0 | 2.6 | 0.00 | 0.82 | 0.82 | 75 | 1006.4 |
| 20260506204705 | 51 | 43 | 0.0 | 2.6 | 0.00 | 0.82 | 0.82 | 75 | 1006.4 |
| 20260506204203 | 51 | 54 | 0.0 | 1.7 | 0.00 | 0.82 | 0.82 | 74 | 1006.4 |
| 20260506203703 | 51 | 98 | 0.9 | 6.1 | 0.00 | 0.82 | 0.82 | 73 | 1006.5 |
| 20260506203204 | 51 | 52 | 0.0 | 6.1 | 0.00 | 0.82 | 0.82 | 72 | 1006.4 |
| 20260506202704 | 51 | 327 | 0.0 | 1.7 | 0.00 | 0.82 | 0.82 | 71 | 1006.3 |
| 20260506202203 | 52 | 328 | 0.0 | 1.7 | 0.00 | 0.82 | 0.82 | 70 | 1006.2 |
| 20260506201703 | 52 | 327 | 0.0 | 0.9 | 0.00 | 0.82 | 0.82 | 70 | 1006.0 |
| 20260506201204 | 52 | 326 | 0.0 | 1.7 | 0.00 | 0.82 | 0.82 | 69 | 1006.0 |
| 20260506200704 | 53 | 281 | 0.0 | 1.7 | 0.00 | 0.82 | 0.82 | 68 | 1005.9 |
| 20260506200203 | 53 | 274 | 0.0 | 0.0 | 0.00 | 0.82 | 0.82 | 68 | 1006.0 |
| 20260506195706 | 53 | 272 | 0.0 | 1.7 | 0.00 | 0.82 | 0.82 | 68 | 1006.1 |
| 20260506195203 | 53 | 272 | 0.0 | 2.6 | 0.00 | 0.82 | 0.82 | 68 | 1005.9 |
| 20260506194704 | 53 | 240 | 0.0 | 2.6 | 0.00 | 0.82 | 0.82 | 68 | 1005.9 |
| 20260506193704 | 53 | 239 | 0.0 | 0.0 | 0.00 | 0.82 | 0.82 | 68 | 1006.0 |
| 20260506193203 | 53 | 238 | 0.0 | 0.0 | 0.01 | 0.82 | 0.82 | 68 | 1006.0 |
| 20260506192703 | 53 | 239 | 0.0 | 0.9 | 0.01 | 0.82 | 0.82 | 69 | 1006.1 |
| 20260506192203 | 54 | 237 | 0.0 | 0.9 | 0.02 | 0.83 | 0.82 | 69 | 1005.9 |
| 20260506191703 | 54 | 243 | 0.0 | 0.9 | 0.04 | 0.83 | 0.82 | 69 | 1005.9 |
| 20260506191204 | 54 | 247 | 0.0 | 0.9 | 0.06 | 0.83 | 0.82 | 69 | 1006.0 |
| 20260506190708 | 54 | 353 | 0.0 | 0.9 | 0.07 | 0.83 | 0.82 | 69 | 1005.9 |
| 20260506190203 | 54 | 353 | 0.0 | 0.0 | 0.09 | 0.83 | 0.82 | 70 | 1006.0 |
| 20260506185704 | 54 | 245 | 0.0 | 0.0 | 0.09 | 0.83 | 0.82 | 70 | 1006.0 |
| 20260506184205 | 54 | 245 | 0.9 | 3.5 | 0.12 | 0.83 | 0.82 | 70 | 1005.5 |
| 20260506183703 | 54 | 353 | 1.7 | 5.2 | 0.13 | 0.83 | 0.81 | 71 | 1005.4 |
| 20260506183206 | 54 | 353 | 0.9 | 5.2 | 0.12 | 0.82 | 0.81 | 71 | 1005.3 |
| 20260506182704 | 54 | 358 | 0.0 | 0.0 | 0.12 | 0.82 | 0.80 | 72 | 1005.1 |
| 20260506181705 | 54 | 358 | 0.0 | 0.9 | 0.09 | 0.79 | 0.78 | 74 | 1005.1 |
| 20260506181203 | 54 | 358 | 0.0 | 0.9 | 0.08 | 0.77 | 0.76 | 75 | 1004.9 |
| 20260506180706 | 54 | 358 | 0.0 | 2.6 | 0.06 | 0.76 | 0.75 | 75 | 1004.8 |
| 20260506180203 | 54 | 358 | 0.9 | 2.6 | 0.05 | 0.74 | 0.73 | 76 | 1004.7 |
| 20260506175704 | 54 | 358 | 0.9 | 1.7 | 0.04 | 0.73 | 0.72 | 77 | 1004.5 |
| 20260506175203 | 54 | 358 | 0.9 | 1.7 | 0.02 | 0.72 | 0.71 | 78 | 1004.4 |
| 20260506174706 | 55 | 358 | 0.9 | 2.6 | 0.02 | 0.72 | 0.70 | 80 | 1004.2 |
| 20260506174205 | 55 | 358 | 1.7 | 2.6 | 0.02 | 0.75 | 0.70 | 81 | 1003.9 |
| 20260506173706 | 55 | 6 | 0.9 | 2.6 | 0.01 | 0.74 | 0.69 | 81 | 1003.7 |
| 20260506173205 | 56 | 24 | 0.0 | 2.6 | 0.01 | 0.74 | 0.69 | 82 | 1003.7 |
| 20260506172706 | 56 | 32 | 0.0 | 2.6 | 0.01 | 0.74 | 0.69 | 82 | 1003.6 |
| 20260506172206 | 56 | 33 | 0.0 | 2.6 | 0.00 | 0.73 | 0.69 | 82 | 1003.7 |
| 20260506171707 | 57 | 34 | 0.0 | 1.7 | 0.00 | 0.73 | 0.69 | 83 | 1003.6 |
| 20260506171205 | 57 | 34 | 0.0 | 1.7 | 0.00 | 0.73 | 0.69 | 83 | 1003.6 |
| 20260506170704 | 58 | 34 | 0.0 | 1.7 | 0.00 | 0.73 | 0.69 | 84 | 1003.6 |
| 20260506170204 | 58 | 91 | 0.0 | 2.6 | 0.00 | 0.73 | 0.69 | 84 | 1003.5 |
| 20260506165706 | 58 | 94 | 0.0 | 2.6 | 0.00 | 0.73 | 0.69 | 84 | 1003.4 |
| 20260506165209 | 59 | 112 | 0.0 | 0.0 | 0.00 | 0.73 | 0.69 | 83 | 1003.4 |
| 20260506164707 | 59 | 113 | 0.0 | 0.9 | 0.00 | 0.73 | 0.69 | 84 | 1003.5 |
| 20260506164205 | 59 | 112 | 0.0 | 0.9 | 0.00 | 0.73 | 0.69 | 84 | 1003.5 |
| 20260506163704 | 60 | 114 | 0.0 | 1.7 | 0.00 | 0.73 | 0.69 | 83 | 1003.4 |
| 20260506163204 | 61 | 113 | 0.9 | 2.6 | 0.00 | 0.73 | 0.69 | 82 | 1003.5 |
| 20260506162705 | 61 | 116 | 0.9 | 5.2 | 0.00 | 0.73 | 0.69 | 75 | 1003.5 |
| 20260506161704 | 62 | 123 | 0.9 | 3.5 | 0.00 | 0.73 | 0.69 | 73 | 1003.6 |
| 20260506161205 | 62 | 91 | 1.7 | 3.5 | 0.00 | 0.73 | 0.69 | 74 | 1003.5 |
| 20260506160706 | 62 | 109 | 1.7 | 4.3 | 0.00 | 0.73 | 0.69 | 73 | 1003.6 |
| 20260506160204 | 62 | 137 | 1.7 | 4.3 | 0.00 | 0.73 | 0.69 | 74 | 1003.7 |
| 20260506155704 | 62 | 95 | 0.9 | 4.3 | 0.00 | 0.73 | 0.69 | 73 | 1003.8 |
| 20260506155218 | 63 | 110 | 1.7 | 5.2 | 0.00 | 0.73 | 0.69 | 71 | 1003.8 |
| 20260506154705 | 64 | 101 | 1.7 | 5.2 | 0.00 | 0.73 | 0.69 | 70 | 1003.9 |
| 20260506153708 | 64 | 100 | 3.5 | 7.0 | 0.00 | 0.73 | 0.69 | 71 | 1004.1 |
| 20260506153205 | 64 | 114 | 3.5 | 7.0 | 0.00 | 0.73 | 0.69 | 72 | 1003.9 |
| 20260506152705 | 63 | 116 | 4.3 | 7.8 | 0.00 | 0.73 | 0.69 | 71 | 1004.1 |
| 20260506152205 | 64 | 83 | 4.3 | 8.7 | 0.00 | 0.73 | 0.69 | 73 | 1004.1 |
| 20260506151204 | 62 | 123 | 2.6 | 7.8 | 0.00 | 0.73 | 0.69 | 79 | 1004.2 |
| 20260506150707 | 62 | 94 | 0.9 | 7.0 | 0.00 | 0.73 | 0.69 | 81 | 1004.3 |
| 20260506150205 | 61 | 135 | 0.9 | 2.6 | 0.00 | 0.73 | 0.69 | 83 | 1004.3 |
| 20260506145705 | 60 | 75 | 0.9 | 2.6 | 0.00 | 0.73 | 0.69 | 83 | 1004.4 |
| 20260506145204 | 60 | 58 | 2.6 | 7.0 | 0.00 | 0.73 | 0.69 | 83 | 1004.4 |
| 20260506144706 | 60 | 91 | 1.7 | 7.0 | 0.00 | 0.73 | 0.69 | 83 | 1004.5 |
| 20260506144204 | 60 | 80 | 1.7 | 6.1 | 0.01 | 0.73 | 0.69 | 83 | 1004.6 |
| 20260506143205 | 60 | 62 | 2.6 | 7.0 | 0.01 | 0.73 | 0.69 | 82 | 1004.6 |
| 20260506141705 | 60 | 121 | 4.3 | 7.8 | 0.02 | 0.73 | 0.69 | 81 | 1004.7 |
| 20260506141205 | 61 | 87 | 3.5 | 7.8 | 0.03 | 0.73 | 0.69 | 81 | 1004.7 |
| 20260506140705 | 61 | 95 | 2.6 | 6.1 | 0.03 | 0.73 | 0.69 | 82 | 1004.8 |
| 20260506140204 | 61 | 116 | 2.6 | 7.0 | 0.04 | 0.73 | 0.69 | 82 | 1004.7 |
| 20260506135704 | 60 | 112 | 4.3 | 7.0 | 0.05 | 0.73 | 0.69 | 83 | 1004.7 |
| 20260506135204 | 60 | 112 | 4.3 | 7.8 | 0.06 | 0.73 | 0.69 | 83 | 1004.7 |
| 20260506134706 | 60 | 101 | 3.5 | 9.6 | 0.06 | 0.73 | 0.69 | 83 | 1004.9 |
| 20260506134206 | 60 | 85 | 4.3 | 9.6 | 0.06 | 0.72 | 0.68 | 84 | 1004.9 |
| 20260506133704 | 60 | 100 | 5.2 | 9.6 | 0.07 | 0.72 | 0.68 | 84 | 1005.0 |
| 20260506133203 | 60 | 102 | 4.3 | 9.6 | 0.08 | 0.72 | 0.68 | 84 | 1004.9 |
| 20260506132704 | 60 | 79 | 3.5 | 7.8 | 0.08 | 0.72 | 0.67 | 84 | 1004.9 |
| 20260506132204 | 59 | 66 | 4.3 | 7.8 | 0.09 | 0.72 | 0.67 | 84 | 1005.0 |
| 20260506131705 | 59 | 141 | 4.3 | 9.6 | 0.13 | 0.71 | 0.66 | 84 | 1004.9 |
| 20260506131204 | 58 | 100 | 3.5 | 9.6 | 0.35 | 0.70 | 0.65 | 84 | 1004.9 |
| 20260506130705 | 58 | 103 | 4.3 | 7.0 | 0.57 | 0.70 | 0.65 | 83 | 1005.0 |
| 20260506130205 | 58 | 74 | 3.5 | 7.0 | 0.65 | 0.69 | 0.65 | 82 | 1005.0 |
| 20260506125707 | 58 | 88 | 1.7 | 6.1 | 0.64 | 0.69 | 0.64 | 73 | 1005.0 |
| 20260506124706 | 57 | 66 | 0.9 | 3.5 | 0.62 | 0.67 | 0.62 | 66 | 1005.2 |
| 20260506124205 | 55 | 76 | 0.9 | 3.5 | 0.61 | 0.66 | 0.61 | 69 | 1005.3 |
| 20260506123705 | 53 | 353 | 0.0 | 2.6 | 0.61 | 0.65 | 0.61 | 74 | 1005.4 |
| 20260506123203 | 53 | 353 | 0.0 | 2.6 | 0.60 | 0.65 | 0.60 | 79 | 1005.5 |
| 20260506122703 | 52 | 27 | 2.6 | 7.8 | 0.59 | 0.64 | 0.59 | 82 | 1005.5 |
| 20260506121704 | 56 | 97 | 2.6 | 10.4 | 0.53 | 0.57 | 0.50 | 83 | 1005.4 |
| 20260506121203 | 60 | 162 | 2.6 | 7.0 | 0.30 | 0.35 | 0.28 | 83 | 1005.8 |
| 20260506120700 | 62 | 75 | 4.3 | 7.0 | 0.07 | 0.12 | 0.04 | 76 | 1005.4 |
| 20260506115648 | 64 | 110 | 4.3 | 6.1 | 0.00 | 0.05 | 0.00 | 67 | 1005.3 |
| 20260506114640 | 66 | 96 | 4.3 | 8.7 | 0.00 | 0.05 | 0.00 | 64 | 1005.3 |
| 20260506114140 | 66 | 108 | 3.5 | 6.1 | 0.00 | 0.05 | 0.00 | 65 | 1005.3 |
| 20260506113640 | 65 | 93 | 3.5 | 7.8 | 0.00 | 0.05 | 0.00 | 67 | 1005.5 |
| 20260506113141 | 66 | 77 | 2.6 | 7.8 | 0.00 | 0.05 | 0.00 | 67 | 1005.4 |
| 20260506112642 | 65 | 59 | 1.7 | 6.1 | 0.00 | 0.05 | 0.00 | 64 | 1005.5 |
| 20260506111636 | 64 | 92 | 2.6 | 6.1 | 0.00 | 0.05 | 0.00 | 65 | 1005.6 |